Tracking 29892 objects as of 21-Nov-2024
HD Live streaming from Space Station
objects crossing your sky now

DELTA 1 DEB

Track DELTA 1 DEB now!
10-day predictions


NORAD ID: 12218
Int'l Code: 1978-026BK
Perigee: 870.9 km
Apogee: 946.0 km
Inclination: 99.4 °
Period: 103.0 minutes
Semi major axis: 7279 km
RCS: 0.0925 m2 (small)
Launch date: March 5, 1978
Source: United States (US)
Launch site: AIR FORCE WESTERN TEST RANGE (AFWTR)

Note: This is SATELLITE DEBRIS
Your satellite tracking list
Your tracking list is empty




NASA's NSSDC Master Catalog

Two Line Element Set (TLE):
1 12218U 78026BK  24324.54579759  .00000507  00000-0  38748-3 0  9998
2 12218  99.4039 185.2995 0051528 298.1191 123.9418 13.97834968229336
Source of the keplerian elements: AFSPC